KCLT

Charlotte/Douglas

Airport
ICAO code
KCLT
Summary
ICAO Region
NAM
ICAO Territory
Location

Charlotte, North Carolina,

Coordinates
35° 12' 50" N , 80° 56' 35" W
KCC
Airport LOS
Parallel Runway Operation
Airport RE
Engineered Materials Arresting System
Airport WX
Cumulonimbus
Metar
Observation
KCLT 070152Z 00000KT 10SM FEW250 12/M02 A3020 RMK SLP228 T01171022
Station
Charlotte, Charlotte / Douglas International Airport
Date/Time
2023-02-07 02:52:00
Wind direction
Wind speed
00 kts
Lowest cloud amount
few clouds
Temperature
11.7°C
Dew point
-2.2°C
Humidity
37%
Weather condition
n/a

Description

International airport serving Charlotte, North Carolina, USA.

Climatology

Humid “subtropical” climate (Köppen climate classification Cfa) - characterized by hot, humid summers and cool winters. Significant amounts of precipitation occur in all seasons in most areas. Winter rainfall (and sometimes snowfall) is associated with large storms that the westerlies steer from west to east. Most summer rainfall occurs during thunderstorms and occasional tropical storms (hurricanes).

SKYbrary Partners:

Safety knowledge contributed by: